This is the latest recevied weather packets stored in our database for station/object W4NDF-13. If no packets are shown the sender has not sent any weather packets the latest 10 day(s).
| Time | Temp. | Humidity | Pressure | Rain* | Wind** | Luminosity | Snow |
|---|---|---|---|---|---|---|---|
| 1777705332 | 14.44° C | 99% | 1013.1 hPa | 3.05 mm | - | 0 W/m² | - |
| 1777705030 | 14.44° C | 99% | 1012.6 hPa | 1.78 mm | - | 0 W/m² | - |
| 1777704728 | 14.44° C | 99% | 1012.9 hPa | 0 mm | - | 0 W/m² | - |
| 1777704426 | 14.44° C | 99% | 1013.2 hPa | 0 mm | - | 0 W/m² | - |
| 1777704123 | 14.44° C | 99% | 1013.1 hPa | 0 mm | - | 0 W/m² | - |
| 1777703821 | 14.44° C | 99% | 1013 hPa | 0 mm | - | 0 W/m² | - |
| 1777703518 | 14.44° C | 99% | 1012.9 hPa | 0 mm | - | 0 W/m² | - |
| 1777703215 | 14.44° C | 99% | 1013.2 hPa | 0 mm | - | 0 W/m² | - |
| 1777702913 | 14.44° C | 99% | 1013.2 hPa | 0 mm | - | 0 W/m² | - |
| 1777702611 | 14.44° C | 99% | 1013.2 hPa | 0 mm | - | 0 W/m² | - |
| 1777702308 | 14.44° C | 99% | 1013 hPa | 0 mm | - | 0 W/m² | - |
| 1777702008 | 14.44° C | 99% | 1013 hPa | 1.27 mm | - | 0 W/m² | - |
| 1777701705 | 14.44° C | 99% | 1012.9 hPa | 1.27 mm | - | 0 W/m² | - |
| 1777701403 | 14.44° C | 99% | 1012.9 hPa | 0 mm | - | 0 W/m² | - |
| 1777701101 | 15° C | 99% | 1013.4 hPa | 3.56 mm | - | 0 W/m² | - |
| 1777700800 | 15° C | 99% | 1013.5 hPa | 13.72 mm | - | 0 W/m² | - |
| 1777700497 | 15° C | 99% | 1013.8 hPa | 33.53 mm | - | 0 W/m² | - |
| 1777700194 | 15° C | 99% | 1013.5 hPa | 21.59 mm | - | 0 W/m² | - |
| 1777699891 | 15° C | 99% | 1013.4 hPa | 4.83 mm | - | 0 W/m² | - |
| 1777699589 | 15° C | 99% | 1012.7 hPa | 8.89 mm | - | 0 W/m² | - |
| 1777699287 | 15° C | 99% | 1012.7 hPa | 15.49 mm | - | 0 W/m² | - |
| 1777698985 | 15° C | 99% | 1013.4 hPa | 6.1 mm | - | 0 W/m² | - |
| 1777698683 | 15° C | 99% | 1013.5 hPa | 1.27 mm | - | 0 W/m² | - |
| 1777698379 | 15° C | 99% | 1013.7 hPa | 0 mm | - | 0 W/m² | - |
| 1777698076 | 15° C | 99% | 1013.1 hPa | 0 mm | - | 0 W/m² | - |
* Rain latest hour (hover to see other rain measurements)
** Current wind speed in m/s (hover to see current wind gust speed)